Regional Weather Roundup
Issued by NWS Goodland, KS

Home | Current Version | Previous Version | Text Only | Print | Product List | Glossary Off
Versions: 1 2 3 4 5 6 7 8 9 10 11 12 13 14 15 16 17 18 19 20 21 22 23 24 25 26 27 28 29 30 31 32 33 34 35 36 37 38 39 40 41 42 43 44 45 46 47 48 49 50

053
ASUS43 KGLD 170759
RWRGLD

GOODLAND FORECAST AREA HOURLY WEATHER ROUNDUP
NATIONAL WEATHER SERVICE GOODLAND KS
100 AM MST SUN DEC 17 2017

...OFFICIAL OBSERVATIONS...

CITY           SKY/WX    TMP DP  RH WIND       PRES   REMARKS
GOODLAND KS    CLOUDY    32  29  88 NE18G26   29.91S
HILL CITY KS   CLOUDY    35  30  82 N9        29.90S
IMPERIAL NEB   CLOUDY    35  33  92 NE10      29.97R
MCCOOK NEB     CLOUDY    37  32  82 NE16      29.95S
AKRON CO       CLOUDY    30  28  92 NE9       29.93S FOG
BURLINGTON CO  CLOUDY    31  28  89 NE18G26   29.91S WCI  19
LIMON CO       CLOUDY    28  26  92 N8        29.91S
$$

...UNOFFICIAL OBSERVATIONS...

CITY           SKY/WX    TMP DP  RH WIND       PRES   REMARKS
LENORA KS        N/A     33  32  96 NE7         N/A
NORTON KS      CLEAR     34  28  80 N9        29.91
SHARON SPRINGS   N/A     31  28  88 N14G21      N/A
TRENTON NEB      N/A     36  32  85 NE6         N/A
KIT CARSON CO    N/A     30  26  84 MISG        N/A
YUMA CO        CLOUDY    32  30  93 NE10      29.94R FOG
$$




USA.gov is the U.S. government's official web portal to all federal, state and local government web resources and services.